DW0275 Weather Reports


Display with metric or nautical units.
time (UTC)temp
F
wind
direction
speed
MPH
gust
MPH
rain 1hr
in
rain 24hr
in
rain mn
in
humidity
%
barometer
mb
20260903135323 87 120 0.0 4.0 0.00 0.85 0.07 85 1015.8
20260903134820 87 103 2.0 5.0 0.00 0.85 0.07 85 1015.8
20260903134537 86 108 2.0 5.0 0.00 0.85 0.07 85 1015.6
20260903134334 87 125 3.0 5.0 0.00 0.85 0.07 85 1015.8
20260903133830 86 120 2.0 5.0 0.00 0.85 0.07 85 1015.6
20260903133328 87 120 2.0 5.0 0.00 0.85 0.07 84 1015.6
20260903133101 87 148 1.0 5.0 0.00 0.85 0.07 85 1015.4
20260903132825 87 122 1.0 5.0 0.00 0.85 0.07 86 1015.4
20260903132323 87 115 0.0 1.0 0.00 0.85 0.07 86 1015.3
20260903131839 87 142 0.0 1.0 0.00 0.85 0.07 86 1015.3
20260903131517 86 122 0.0 0.0 0.00 0.85 0.07 87 1015.2
20260903131314 86 133 0.0 0.0 0.00 0.85 0.07 88 1015.3
20260903130831 86 130 0.0 0.0 0.00 0.85 0.07 89 1015.4
20260903130326 86 108 0.0 0.0 0.00 0.85 0.07 90 1015.4
20260903130004 85 21 0.0 0.0 0.00 0.85 0.07 92 1015.4
20260903125822 86 21 0.0 0.0 0.00 0.85 0.07 93 1015.6
20260903125320 86 15 0.0 0.0 0.00 0.85 0.07 95 1015.6
20260903124837 84 15 0.0 0.0 0.00 0.85 0.07 95 1015.7
20260903124522 83 15 0.0 0.0 0.00 0.85 0.07 95 1015.6
20260903124331 83 15 0.0 0.0 0.00 0.85 0.07 95 1015.8
20260903123827 82 15 0.0 0.0 0.00 0.85 0.07 95 1015.8
20260903123324 81 15 0.0 0.0 0.00 0.85 0.07 95 1015.6
20260903123006 80 15 0.0 0.0 0.00 0.85 0.07 95 1015.5
20260903122820 80 15 0.0 0.0 0.00 0.85 0.07 95 1015.6
20260903122317 80 15 0.0 0.0 0.00 0.85 0.07 95 1015.6
20260903121813 80 15 0.0 0.0 0.00 0.85 0.07 95 1015.5
20260903121523 79 15 0.0 0.0 0.00 0.85 0.07 95 1015.4
20260903121330 79 15 0.0 0.0 0.00 0.85 0.07 95 1015.5
20260903120849 79 15 0.0 0.0 0.00 0.85 0.07 95 1015.5
20260903120345 78 15 0.0 0.0 0.00 0.85 0.07 95 1015.5
20260903120021 78 15 0.0 0.0 0.00 0.85 0.07 95 1015.3
20260903115820 78 15 0.0 0.0 0.00 0.85 0.07 95 1015.4
20260903115319 78 15 0.0 0.0 0.00 0.85 0.07 95 1015.4
20260903114816 78 15 0.0 0.0 0.00 0.85 0.07 95 1015.4
20260903114509 77 15 0.0 0.0 0.00 0.85 0.07 95 1015.2
20260903114334 78 15 0.0 0.0 0.00 0.85 0.07 95 1015.3
20260903113830 77 15 0.0 0.0 0.00 0.85 0.07 95 1015.3
20260903113329 77 15 0.0 0.0 0.00 0.85 0.07 95 1015.2
20260903113034 77 15 0.0 0.0 0.00 0.85 0.07 95 1015.1
20260903112848 77 15 0.0 0.0 0.00 0.85 0.07 95 1015.2
20260903112324 77 15 0.0 0.0 0.00 0.85 0.07 95 1015.1
20260903111822 77 15 0.0 0.0 0.00 0.85 0.07 95 1015.0
20260903111552 76 48 0.0 0.0 0.00 0.85 0.07 95 1015.0
20260903111321 77 48 0.0 0.0 0.00 0.85 0.07 95 1015.1
20260903110818 77 48 0.0 0.0 0.00 0.85 0.07 95 1014.9
20260903110315 77 48 0.0 0.0 0.00 0.85 0.07 95 1015.0
20260903110047 76 48 0.0 0.0 0.00 0.85 0.07 95 1014.8
20260903105829 77 48 0.0 0.0 0.00 0.85 0.07 95 1014.8
20260903105325 77 48 0.0 0.0 0.00 0.85 0.07 95 1014.7
20260903104822 77 48 0.0 0.0 0.00 0.85 0.07 95 1014.5
20260903104533 76 48 0.0 0.0 0.00 0.85 0.07 95 1014.4
20260903104339 77 48 0.0 0.0 0.00 0.85 0.07 95 1014.4
20260903103838 77 48 0.0 0.0 0.00 0.85 0.07 95 1014.2
20260903103336 77 48 0.0 0.0 0.00 0.85 0.07 95 1014.3
20260903103014 76 48 0.0 0.0 0.00 0.85 0.07 95 1014.1
20260903102834 76 48 0.0 0.0 0.00 0.85 0.07 94 1014.2
20260903101823 76 48 0.0 0.0 0.00 0.85 0.07 94 1014.0
20260903101515 76 48 0.0 0.0 0.00 0.85 0.07 94 1014.0
20260903101322 77 48 0.0 0.0 0.00 0.85 0.07 94 1014.1
20260903100819 77 48 0.0 0.0 0.00 0.85 0.07 95 1014.1
20260903100337 77 48 0.0 0.0 0.00 0.85 0.07 95 1013.9
20260903100035 76 48 0.0 0.0 0.00 0.85 0.07 95 1013.8
20260903095832 77 48 0.0 0.0 0.00 0.85 0.07 94 1013.9
20260903095327 77 48 0.0 0.0 0.00 0.85 0.07 94 1013.9
20260903094825 77 48 0.0 0.0 0.00 0.85 0.07 94 1013.8
20260903094524 76 48 0.0 0.0 0.00 0.85 0.07 94 1013.8
20260903094322 77 48 0.0 0.0 0.00 0.85 0.07 94 1013.9
20260903093818 77 48 0.0 0.0 0.00 0.85 0.07 94 1013.9
20260903093315 77 48 0.0 0.0 0.00 0.85 0.07 95 1013.8
20260903093020 77 48 0.0 0.0 0.00 0.85 0.07 95 1013.8
20260903092832 77 48 0.0 0.0 0.00 0.85 0.07 95 1013.9
20260903092348 77 47 0.0 0.0 0.00 0.85 0.07 94 1013.8
20260903091823 77 48 0.0 0.0 0.00 0.85 0.07 95 1013.8
20260903091536 76 48 0.0 0.0 0.00 0.85 0.07 94 1013.7
20260903091319 77 48 0.0 0.0 0.00 0.85 0.07 94 1013.9
20260903090817 77 48 0.0 0.0 0.00 0.85 0.07 94 1013.8
20260903090315 77 48 0.0 0.0 0.00 0.85 0.07 94 1013.8
20260903090030 76 48 0.0 0.0 0.00 0.85 0.07 94 1013.7
20260903085833 77 48 0.0 0.0 0.00 0.85 0.07 94 1013.8
20260903085331 77 48 0.0 0.0 0.00 0.85 0.07 94 1013.8
20260903084828 77 48 0.0 0.0 0.00 0.85 0.07 94 1013.8
20260903084512 76 48 0.0 0.0 0.00 0.85 0.07 94 1013.7
20260903084342 77 48 0.0 0.0 0.00 0.85 0.07 94 1013.9
20260903083817 76 48 0.0 0.0 0.00 0.85 0.07 94 1013.9
20260903083332 76 48 0.0 0.0 0.00 0.85 0.07 94 1013.9
20260903083045 76 48 0.0 0.0 0.00 0.85 0.07 94 1013.8
20260903082827 76 48 0.0 0.0 0.00 0.85 0.07 94 1014.0
20260903082324 76 48 0.0 0.0 0.00 0.85 0.07 94 1013.9
20260903081821 76 48 0.0 0.0 0.00 0.85 0.07 94 1013.9
20260903081534 76 48 0.0 0.0 0.00 0.85 0.07 94 1013.8
20260903081316 76 48 0.0 1.0 0.00 0.85 0.07 94 1013.8
20260903080834 76 49 0.0 1.0 0.00 0.85 0.07 94 1013.8
20260903080330 76 114 0.0 0.0 0.00 0.85 0.07 94 1013.9
20260903080019 76 114 0.0 0.0 0.00 0.85 0.07 94 1013.8
20260903075848 76 114 0.0 0.0 0.00 0.85 0.07 94 1014.0
20260903075323 76 114 0.0 0.0 0.00 0.85 0.07 94 1013.9
20260903074820 76 114 0.0 0.0 0.00 0.85 0.07 94 1013.9
20260903074516 76 114 0.0 0.0 0.00 0.85 0.07 94 1013.9
20260903074317 76 114 0.0 0.0 0.00 0.85 0.07 94 1014.0
20260903073834 77 115 0.0 0.0 0.00 0.85 0.07 94 1013.9
20260903073329 76 114 0.0 0.0 0.00 0.85 0.07 94 1014.0
20260903073012 76 114 0.0 0.0 0.00 0.85 0.07 94 1013.9
20260903072826 76 114 0.0 0.0 0.00 0.85 0.07 94 1014.0
20260903072323 76 114 0.0 0.0 0.00 0.85 0.07 94 1014.1
20260903071822 76 114 0.0 0.0 0.00 0.85 0.07 94 1014.1
20260903071550 76 114 0.0 0.0 0.00 0.85 0.07 94 1014.0
20260903071321 76 115 0.0 0.0 0.00 0.85 0.07 94 1014.1
20260903070817 76 115 0.0 0.0 0.00 0.85 0.07 94 1014.4
20260903070314 76 115 0.0 0.0 0.00 0.85 0.07 94 1014.4
20260903070030 76 114 0.0 0.0 0.00 0.85 0.07 94 1014.3
20260903065822 77 115 0.0 0.0 0.00 0.85 0.07 94 1014.3
20260903065320 77 114 0.0 1.0 0.00 0.85 0.07 94 1014.4
20260903064818 77 115 0.0 0.0 0.00 0.85 0.07 94 1014.3
20260903064520 76 114 0.0 0.0 0.00 0.85 0.07 94 1014.1
20260903064334 77 114 0.0 0.0 0.00 0.85 0.07 94 1014.2
20260903063851 77 114 0.0 0.0 0.00 0.85 0.07 94 1014.2
20260903063326 77 114 0.0 1.0 0.00 0.85 0.07 94 1014.2
20260903063043 76 115 0.0 1.0 0.00 0.85 0.07 94 1014.2
20260903062822 77 118 0.0 1.0 0.00 0.85 0.07 94 1014.2
20260903062318 77 118 0.0 0.0 0.00 0.85 0.07 94 1014.1
20260903061837 77 118 0.0 0.0 0.00 0.85 0.07 94 1014.1
20260903061540 76 118 0.0 0.0 0.00 0.85 0.07 94 1014.0
20260903061354 77 118 0.0 0.0 0.00 0.85 0.07 94 1014.1
20260903060830 77 118 0.0 0.0 0.00 0.85 0.07 94 1014.1
20260903060347 77 118 0.0 1.0 0.00 0.85 0.07 94 1014.2
20260903060029 76 118 0.0 1.0 0.00 0.85 0.07 94 1014.1
20260903055822 77 118 0.0 1.0 0.00 0.85 0.07 94 1014.3
20260903055320 77 118 0.0 0.0 0.00 0.85 0.07 94 1014.5
20260903054816 76 118 0.0 0.0 0.00 0.85 0.07 94 1014.6
20260903054511 76 118 0.0 1.0 0.00 0.85 0.07 94 1014.6
20260903054333 76 118 0.0 1.0 0.00 0.85 0.07 94 1014.7
20260903053830 76 118 0.0 2.0 0.00 0.85 0.07 94 1014.8
20260903053326 77 118 0.0 2.0 0.00 0.85 0.07 94 1014.9
20260903053055 76 118 0.0 2.0 0.01 0.85 0.07 94 1014.9
20260903052822 77 128 0.0 2.0 0.01 0.85 0.07 94 1015.0
20260903052319 77 127 0.0 1.0 0.01 0.85 0.07 94 1015.3
20260903051815 77 127 0.0 1.0 0.01 0.85 0.07 94 1015.4
20260903051540 76 120 0.0 1.0 0.02 0.85 0.07 94 1015.4
20260903051353 77 108 0.0 1.0 0.03 0.85 0.07 94 1015.4
20260903050827 77 124 0.0 0.0 0.04 0.85 0.07 94 1015.5
20260903050343 77 124 0.0 0.0 0.06 0.85 0.07 94 1015.4
20260903050038 76 124 0.0 0.0 0.07 0.85 0.07 94 1015.3
20260903045840 77 160 0.0 0.0 0.08 0.85 0.07 94 1015.4
20260903045355 77 160 0.0 1.0 0.11 0.85 0.07 93 1015.6
20260903044832 76 347 0.0 1.0 0.21 0.85 0.07 93 1015.8
20260903044506 76 347 0.0 0.0 0.26 0.85 0.07 93 1015.7
20260903044328 76 347 0.0 0.0 0.27 0.85 0.07 93 1015.9
20260903043824 77 347 0.0 0.0 0.29 0.85 0.07 93 1015.9
20260903043319 77 347 0.0 3.0 0.30 0.85 0.07 93 1016.1
20260903043044 76 347 0.0 3.0 0.28 0.84 0.06 93 1016.0
20260903042837 77 347 0.0 3.0 0.30 0.84 0.06 93 1016.2
20260903042352 77 145 0.0 0.0 0.39 0.84 0.06 93 1016.3
20260903041826 77 145 0.0 1.0 0.72 0.83 0.05 93 1016.3
20260903041513 76 145 0.0 1.0 0.81 0.83 0.05 93 1016.2
20260903041324 77 157 0.0 1.0 0.80 0.82 0.04 93 1016.3
20260903040821 76 155 0.0 0.0 0.80 0.81 0.03 93 1016.4
20260903040338 77 156 0.0 0.0 0.79 0.79 0.01 93 1016.5
20260903040050 76 156 0.0 0.0 0.78 0.78 0.00 93 1016.4
20260903035830 77 155 0.0 2.0 0.77 0.77 0.77 93 1016.5
20260903035326 77 158 0.0 2.0 0.72 0.72 0.72 93 1016.5
20260903034823 77 117 1.0 2.0 0.62 0.62 0.62 93 1016.7
20260903034546 77 145 0.0 2.0 0.59 0.59 0.59 93 1016.6
20260903034320 77 123 0.0 0.0 0.58 0.58 0.58 92 1016.5
20260903033838 77 108 0.0 0.0 0.56 0.56 0.56 92 1016.5
20260903033332 77 108 0.0 1.0 0.55 0.55 0.55 92 1016.7
20260903033116 77 108 0.0 1.0 0.55 0.55 0.55 92 1016.6
20260903032827 77 108 0.0 1.0 0.54 0.54 0.54 92 1016.8
20260903032325 78 293 0.0 0.0 0.43 0.43 0.43 91 1016.6
20260903031820 78 201 0.0 0.0 0.09 0.09 0.09 91 1016.9
20260903031545 77 310 0.0 0.0 0.02 0.02 0.02 91 1016.7
20260903031338 78 310 0.0 1.0 0.02 0.02 0.02 90 1016.7
20260903030814 78 26 0.0 1.0 0.01 0.01 0.01 90 1016.8
20260903030331 78 144 0.0 2.0 0.00 0.00 0.00 89 1016.7
20260903030004 78 288 0.0 2.0 0.00 0.00 0.00 89 1016.6
20260903025828 79 288 0.0 2.0 0.00 0.00 0.00 89 1016.6
20260903025326 79 281 0.0 5.0 0.00 0.00 0.00 88 1016.5
20260903024823 80 314 1.0 5.0 0.00 0.00 0.00 88 1016.6
20260903024553 80 323 0.0 3.0 0.00 0.00 0.00 88 1016.4
20260903024340 80 347 1.0 3.0 0.00 0.00 0.00 87 1016.5
20260903023816 81 309 0.0 3.0 0.00 0.00 0.00 87 1016.5
20260903023329 81 12 1.0 3.0 0.00 0.00 0.00 87 1016.5
20260903023016 81 168 0.0 3.0 0.00 0.00 0.00 86 1016.2
20260903022826 82 150 1.0 3.0 0.00 0.00 0.00 86 1016.2
20260903022321 82 160 1.0 4.0 0.00 0.00 0.00 85 1016.2
20260903021820 82 139 0.0 4.0 0.00 0.00 0.00 83 1016.0
20260903021558 82 117 1.0 4.0 0.00 0.00 0.00 83 1015.9
20260903021337 83 242 1.0 3.0 0.00 0.00 0.00 83 1015.9
20260903020832 83 134 0.0 2.0 0.00 0.00 0.00 84 1015.6
20260903020330 84 125 0.0 0.0 0.00 0.00 0.00 86 1015.8
20260903020028 83 125 0.0 0.0 0.00 0.00 0.00 86 1015.6
20260903015826 84 125 0.0 0.0 0.00 0.00 0.00 86 1015.6
20260903015323 84 135 0.0 0.0 0.00 0.00 0.00 86 1015.4
20260903014818 84 67 0.0 3.0 0.00 0.00 0.00 86 1015.4
20260903014520 84 89 0.0 3.0 0.00 0.00 0.00 86 1015.3
20260903014335 84 115 0.0 3.0 0.00 0.00 0.00 86 1015.4
20260903013853 84 122 0.0 2.0 0.00 0.00 0.00 86 1015.4
20260903013328 84 127 1.0 2.0 0.00 0.00 0.00 86 1015.3
20260903013046 84 145 1.0 2.0 0.00 0.00 0.00 86 1015.1
20260903012827 84 120 1.0 2.0 0.00 0.00 0.00 86 1015.2
20260903012325 84 140 0.0 3.0 0.00 0.00 0.00 86 1015.2
20260903011823 84 72 1.0 4.0 0.00 0.00 0.00 86 1015.2
20260903011526 84 76 0.0 4.0 0.00 0.00 0.00 85 1015.2
20260903011320 84 63 0.0 4.0 0.00 0.00 0.00 85 1015.2
20260903010816 84 127 2.0 4.0 0.00 0.00 0.00 85 1015.0
20260903010334 84 115 1.0 3.0 0.00 0.00 0.00 85 1015.1
20260903010011 84 120 0.0 3.0 0.00 0.00 0.00 85 1015.0
20260903005830 84 81 1.0 3.0 0.00 0.00 0.00 85 1015.0
20260903005329 84 106 1.0 3.0 0.00 0.00 0.00 85 1015.0
20260903004827 84 110 1.0 3.0 0.00 0.00 0.00 85 1015.2
20260903004541 84 141 0.0 2.0 0.00 0.00 0.00 85 1015.0
20260903004326 84 114 0.0 2.0 0.00 0.00 0.00 85 1015.1
20260903003823 84 127 1.0 2.0 0.00 0.00 0.00 85 1014.9
20260903003321 84 58 0.0 3.0 0.00 0.00 0.00 85 1014.9
20260903003016 84 124 0.0 3.0 0.00 0.00 0.00 85 1014.7
20260903002817 84 120 0.0 2.0 0.00 0.00 0.00 85 1014.8
20260903002316 84 141 1.0 2.0 0.00 0.00 0.00 85 1014.5
20260903001815 84 68 0.0 2.0 0.00 0.00 0.00 85 1014.4
20260903001504 84 82 0.0 1.0 0.00 0.00 0.00 85 1014.3
20260903001400 84 142 0.0 2.0 0.00 0.00 0.00 85 1014.4
20260903000854 84 117 0.0 2.0 0.00 0.00 0.00 85 1014.4
20260903000352 84 126 0.0 1.0 0.00 0.00 0.00 85 1014.5
20260903000036 84 137 0.0 0.0 0.00 0.00 0.00 85 1014.4
20260902235848 84 137 0.0 0.0 0.00 0.00 0.00 85 1014.6
20260902235324 85 139 0.0 4.0 0.00 0.00 0.00 85 1014.6
20260902234840 84 139 2.0 4.0 0.00 0.00 0.00 85 1014.7
20260902234508 84 120 0.0 3.0 0.00 0.00 0.00 85 1014.4
20260902234355 84 120 0.0 3.0 0.00 0.00 0.00 84 1014.4
20260902233851 85 141 1.0 2.0 0.00 0.00 0.00 84 1014.2
20260902233326 85 71 0.0 5.0 0.00 0.00 0.00 84 1014.2
20260902233046 84 75 0.0 5.0 0.00 0.00 0.00 84 1014.2
20260902232823 85 129 1.0 5.0 0.00 0.00 0.00 84 1014.3
20260902232320 84 49 0.0 2.0 0.00 0.00 0.00 84 1014.3
20260902231838 84 72 0.0 3.0 0.00 0.00 0.00 85 1014.3
20260902231528 84 157 1.0 3.0 0.00 0.00 0.00 85 1014.1
20260902231334 84 109 1.0 3.0 0.00 0.00 0.00 85 1014.3
20260902230852 83 129 0.0 2.0 0.00 0.00 0.00 84 1014.3
20260902230327 84 65 0.0 1.0 0.00 0.00 0.00 84 1014.4
20260902230029 84 65 0.0 3.0 0.00 0.00 0.00 85 1014.4
20260902225823 84 126 0.0 3.0 0.00 0.00 0.00 85 1014.5
20260902225339 84 240 1.0 3.0 0.00 0.00 0.00 85 1014.6
20260902224815 84 339 0.0 0.0 0.00 0.00 0.00 85 1014.4
20260902224600 83 342 0.0 0.0 0.00 0.00 0.00 84 1014.4
20260902224331 84 342 0.0 0.0 0.00 0.00 0.00 84 1014.3
20260902223829 84 13 0.0 0.0 0.00 0.00 0.00 84 1014.4
20260902223326 84 11 0.0 1.0 0.00 0.00 0.00 84 1014.5
20260902223045 84 11 0.0 1.0 0.00 0.00 0.00 84 1014.3
20260902222823 85 11 0.0 1.0 0.00 0.00 0.00 83 1014.4
20260902222319 85 76 0.0 3.0 0.00 0.00 0.00 83 1014.3
20260902221535 85 141 1.0 7.0 0.00 0.00 0.00 83 1014.4
20260902221330 86 121 3.0 7.0 0.00 0.00 0.00 83 1014.4
20260902220847 86 142 2.0 9.0 0.00 0.00 0.00 83 1014.2
20260902220322 86 144 3.0 6.0 0.00 0.00 0.00 83 1014.2
20260902220007 85 111 2.0 6.0 0.00 0.00 0.00 82 1014.1
20260902215818 86 131 2.0 6.0 0.00 0.00 0.00 83 1014.2
20260902215316 86 140 2.0 6.0 0.00 0.00 0.00 82 1014.1
20260902214834 86 90 3.0 8.0 0.00 0.00 0.00 82 1014.0
20260902214555 86 131 3.0 8.0 0.00 0.00 0.00 82 1014.0
20260902214332 86 122 4.0 8.0 0.00 0.00 0.00 82 1014.1
20260902213830 86 70 2.0 8.0 0.00 0.00 0.00 82 1014.2
20260902213327 87 154 4.0 6.0 0.00 0.00 0.00 82 1014.1
20260902213050 86 139 3.0 7.0 0.00 0.00 0.00 82 1014.0
20260902212822 87 46 1.0 7.0 0.00 0.00 0.00 82 1014.1
20260902212320 87 139 3.0 7.0 0.00 0.00 0.00 82 1014.0
20260902211817 87 141 3.0 8.0 0.00 0.00 0.00 82 1014.0
20260902211528 87 133 4.0 8.0 0.00 0.00 0.00 82 1014.0
20260902211329 87 117 4.0 7.0 0.00 0.00 0.00 82 1014.1
20260902210826 87 136 2.0 8.0 0.00 0.00 0.00 82 1014.0
20260902210323 87 116 5.0 8.0 0.00 0.00 0.00 82 1014.0
20260902210024 87 135 3.0 8.0 0.00 0.00 0.00 82 1014.0
20260902205820 87 129 4.0 8.0 0.00 0.00 0.00 82 1014.0
20260902205316 87 108 2.0 6.0 0.00 0.00 0.00 82 1014.0
20260902204833 87 149 3.0 6.0 0.00 0.00 0.00 82 1014.0
20260902204553 87 128 2.0 5.0 0.00 0.00 0.00 82 1013.8
20260902204331 87 48 3.0 5.0 0.00 0.00 0.00 82 1013.9
20260902203828 87 41 2.0 6.0 0.00 0.00 0.00 82 1013.9
20260902203325 88 85 3.0 8.0 0.00 0.00 0.00 82 1013.8
20260902203058 87 142 2.0 8.0 0.00 0.00 0.00 82 1013.7
20260902202821 88 145 2.0 10.0 0.00 0.00 0.00 82 1013.9
20260902202317 88 30 3.0 10.0 0.00 0.00 0.00 82 1014.0
20260902201833 88 37 3.0 8.0 0.00 0.00 0.00 82 1014.1
20260902201526 88 28 2.0 8.0 0.00 0.00 0.00 82 1014.0
20260902201329 88 122 2.0 8.0 0.00 0.00 0.00 82 1014.1
20260902200825 88 51 3.0 9.0 0.00 0.00 0.00 81 1014.1
20260902200321 89 31 4.0 9.0 0.00 0.00 0.00 82 1014.2
20260902200013 88 84 2.0 6.0 0.00 0.00 0.00 82 1014.0
20260902195817 89 94 2.0 7.0 0.00 0.00 0.00 82 1014.1
20260902195315 89 170 3.0 7.0 0.00 0.00 0.00 82 1014.1
20260902194831 89 51 3.0 6.0 0.00 0.00 0.00 82 1014.1
20260902194557 88 85 2.0 6.0 0.00 0.00 0.00 82 1014.0
20260902194328 88 127 2.0 7.0 0.00 0.00 0.00 82 1014.2
20260902193824 89 63 2.0 7.0 0.00 0.00 0.00 82 1014.4
20260902193320 88 124 4.0 7.0 0.00 0.00 0.00 81 1014.5
20260902193044 88 108 3.0 7.0 0.00 0.00 0.00 82 1014.4
20260902192817 88 111 3.0 6.0 0.00 0.00 0.00 82 1014.5
20260902192331 88 37 3.0 7.0 0.00 0.00 0.00 82 1014.7
20260902191847 89 127 3.0 7.0 0.00 0.00 0.00 82 1014.8
20260902191600 88 22 3.0 7.0 0.00 0.00 0.00 81 1014.7
20260902191502 88 110 3.0 7.0 0.00 0.00 0.00 81 1014.7
20260902191324 89 70 3.0 7.0 0.00 0.00 0.00 81 1014.8
20260902190818 89 68 2.0 9.0 0.00 0.00 0.00 81 1014.9
20260902190336 90 29 3.0 9.0 0.00 0.00 0.00 81 1014.9
20260902190048 90 61 5.0 9.0 0.00 0.00 0.00 80 1014.8
20260902185831 91 50 3.0 9.0 0.00 0.00 0.00 80 1014.9
20260902185328 91 46 2.0 6.0 0.00 0.00 0.00 75 1014.8
20260902184823 92 333 0.0 2.0 0.00 0.00 0.00 76 1014.9
20260902184517 92 110 0.0 1.0 0.00 0.00 0.00 75 1014.8
20260902184319 92 111 0.0 2.0 0.00 0.00 0.00 75 1015.0
20260902183815 91 111 0.0 3.0 0.00 0.00 0.00 76 1015.0
20260902183331 90 148 1.0 6.0 0.00 0.00 0.00 76 1015.3
20260902183114 89 35 0.0 6.0 0.00 0.00 0.00 77 1015.2
20260902183002 89 35 0.0 6.0 0.00 0.00 0.00 77 1015.1
20260902182827 90 89 3.0 6.0 0.00 0.00 0.00 77 1015.2
20260902182344 90 30 2.0 5.0 0.00 0.00 0.00 77 1015.2
20260902181840 90 62 2.0 5.0 0.00 0.00 0.00 77 1015.5
20260902181520 90 44 0.0 4.0 0.00 0.00 0.00 78 1015.3
20260902181357 90 136 0.0 4.0 0.00 0.00 0.00 78 1015.3
20260902180854 90 46 2.0 7.0 0.00 0.00 0.00 79 1015.4
20260902180345 89 107 2.0 7.0 0.00 0.00 0.00 79 1015.5
20260902180057 89 25 2.0 7.0 0.00 0.00 0.00 79 1015.3
20260902175821 89 146 0.0 4.0 0.00 0.00 0.00 79 1015.6
20260902175318 89 356 1.0 4.0 0.00 0.00 0.00 78 1015.6
20260902174836 89 46 2.0 5.0 0.00 0.00 0.00 77 1015.6
20260902174544 89 328 1.0 5.0 0.00 0.00 0.00 77 1015.5
20260902174349 90 2 3.0 5.0 0.00 0.00 0.00 77 1015.6
20260902173844 91 22 1.0 3.0 0.00 0.00 0.00 77 1015.7
20260902173320 92 359 0.0 0.0 0.00 0.00 0.00 77 1015.8
20260902173043 91 345 0.0 0.0 0.00 0.00 0.00 76 1015.7
20260902172818 92 340 0.0 0.0 0.00 0.00 0.00 78 1015.9
20260902172332 91 24 0.0 0.0 0.00 0.00 0.00 79 1016.0
20260902171828 91 41 0.0 1.0 0.00 0.00 0.00 79 1016.1
20260902171522 90 206 0.0 2.0 0.00 0.00 0.00 80 1016.1
20260902171325 90 189 0.0 2.0 0.00 0.00 0.00 79 1016.1
20260902170821 90 17 0.0 2.0 0.00 0.00 0.00 80 1016.3
20260902170317 89 349 0.0 2.0 0.00 0.00 0.00 81 1016.6
20260902170011 88 6 0.0 3.0 0.00 0.00 0.00 82 1016.5
20260902165815 88 360 0.0 3.0 0.00 0.00 0.00 82 1016.7
20260902165334 87 356 1.0 3.0 0.00 0.00 0.00 81 1016.7
20260902164831 88 353 0.0 1.0 0.00 0.00 0.00 82 1016.8
20260902164550 87 353 0.0 0.0 0.00 0.00 0.00 82 1016.6
20260902164327 88 353 0.0 0.0 0.00 0.00 0.00 82 1016.7
20260902163823 87 353 0.0 0.0 0.00 0.00 0.00 83 1016.8
20260902163320 87 353 0.0 2.0 0.00 0.00 0.00 83 1016.8
20260902163011 86 353 0.0 2.0 0.00 0.00 0.00 82 1016.8
20260902162818 87 359 0.0 2.0 0.00 0.00 0.00 82 1016.9
20260902162332 87 321 0.0 0.0 0.00 0.00 0.00 82 1017.0
20260902161830 87 314 0.0 1.0 0.00 0.00 0.00 83 1017.0
20260902161601 87 314 0.0 1.0 0.00 0.00 0.00 83 1016.8
20260902161326 87 314 0.0 1.0 0.00 0.00 0.00 83 1017.0
20260902160821 87 44 0.0 1.0 0.00 0.00 0.00 84 1016.9
20260902160318 86 44 0.0 2.0 0.00 0.00 0.00 84 1016.9
20260902160041 86 44 0.0 2.0 0.00 0.00 0.00 84 1016.8
20260902155834 86 359 0.0 2.0 0.00 0.00 0.00 84 1017.0
20260902155329 85 278 0.0 1.0 0.00 0.00 0.00 85 1017.0
20260902154825 85 5 0.0 0.0 0.00 0.00 0.00 85 1017.0
20260902154534 84 5 0.0 2.0 0.00 0.00 0.00 85 1016.9
20260902154321 85 34 0.0 2.0 0.00 0.00 0.00 85 1017.0
20260902153818 84 357 0.0 2.0 0.00 0.00 0.00 85 1017.0
20260902153334 84 28 0.0 2.0 0.00 0.00 0.00 87 1017.1
20260902153021 83 28 0.0 3.0 0.00 0.00 0.00 86 1017.0
20260902152831 83 22 0.0 3.0 0.00 0.00 0.00 86 1017.1
20260902152326 83 351 1.0 3.0 0.00 0.00 0.00 87 1017.1
20260902151823 83 44 1.0 3.0 0.00 0.00 0.00 87 1017.1
20260902151558 83 43 1.0 3.0 0.00 0.00 0.00 87 1017.0
20260902151321 83 359 2.0 3.0 0.00 0.00 0.00 87 1017.2
20260902150819 83 38 2.0 4.0 0.00 0.00 0.00 87 1017.1
20260902150335 83 34 1.0 4.0 0.00 0.00 0.00 88 1017.0
20260902150011 83 323 2.0 4.0 0.00 0.00 0.00 87 1016.8
20260902145849 83 348 2.0 3.0 0.00 0.00 0.00 87 1016.9
20260902145342 83 1 1.0 3.0 0.00 0.00 0.00 88 1016.8
20260902144817 83 25 0.0 1.0 0.00 0.00 0.00 89 1016.8
20260902144519 82 8 0.0 1.0 0.00 0.00 0.00 89 1016.7
20260902144335 83 8 1.0 1.0 0.00 0.00 0.00 89 1016.8
20260902143850 83 351 0.0 1.0 0.00 0.00 0.00 90 1016.8
20260902143345 82 351 0.0 2.0 0.00 0.00 0.00 90 1016.9
20260902143014 82 30 0.0 2.0 0.00 0.00 0.00 90 1016.8
20260902142840 82 354 0.0 2.0 0.00 0.00 0.00 90 1016.9
20260902142316 82 348 1.0 2.0 0.00 0.00 0.00 90 1016.9
20260902141833 82 345 1.0 2.0 0.00 0.00 0.00 90 1016.9
20260902141536 81 25 0.0 2.0 0.00 0.00 0.00 90 1016.8
20260902141327 82 30 1.0 1.0 0.00 0.00 0.00 91 1016.8
20260902140824 81 345 0.0 0.0 0.00 0.00 0.00 91 1016.9
20260902140321 81 345 0.0 0.0 0.00 0.00 0.00 91 1016.8
20260902140055 80 345 0.0 1.0 0.00 0.00 0.00 91 1016.6
20260902135837 81 345 0.0 2.0 0.00 0.00 0.00 92 1016.7